$Date,$Time,DM0201B,DM0203B,DM0205B,DM0207B,DM0209B
08/02/99,00:00:01,99,306,-27,0,954
08/02/99,00:05:01,119,296,-27,0,954
08/02/99,00:10:01,110,297,-27,0,954
08/02/99,00:15:01,127,307,-27,0,954
08/02/99,00:20:01,118,307,-27,0,954
08/02/99,00:25:01,146,306,-27,0,954
08/02/99,00:30:01,119,308,-27,0,954
08/02/99,00:35:01,118,305,-27,0,954
08/02/99,00:40:01,111,295,-27,0,954
08/02/99,00:45:01,108,304,-27,0,954
08/02/99,00:50:01,127,300,-27,0,954
08/02/99,00:55:01,117,296,-27,0,954
08/02/99,01:00:01,73,290,-27,0,954
08/02/99,01:05:01,65,291,-27,0,954
08/02/99,01:10:01,62,290,-27,0,954
08/02/99,01:15:01,98,302,-27,0,954
08/02/99,01:20:01,95,298,-27,0,954
08/02/99,01:25:01,122,298,-27,0,954
08/02/99,01:30:01,114,299,-27,0,954
08/02/99,01:35:01,130,299,-27,0,954
08/02/99,01:40:01,130,299,-27,0,954
08/02/99,01:45:01,110,298,-27,0,954
08/02/99,01:50:01,127,298,-27,0,954
08/02/99,01:55:01,127,298,-27,0,954
08/02/99,02:00:01,100,298,-27,0,954
08/02/99,02:05:01,102,288,-27,0,954
08/02/99,02:10:01,99,298,-27,0,954
08/02/99,02:15:01,100,287,-27,0,954
08/02/99,02:20:01,99,287,-27,0,954
08/02/99,02:25:01,105,295,-27,0,954
08/02/99,02:30:01,83,295,-27,0,954
08/02/99,02:35:01,98,296,-27,0,954
08/02/99,02:40:01,68,296,-27,0,954
08/02/99,02:45:01,97,303,-25,0,954
08/02/99,02:50:01,99,303,-25,0,954
08/02/99,02:55:01,113,303,-25,0,954
08/02/99,03:00:01,116,303,-25,0,954
08/02/99,03:05:01,113,303,-25,0,954
08/02/99,03:10:01,119,303,-25,0,954
08/02/99,03:15:01,121,303,-25,0,954
08/02/99,03:20:01,122,314,-25,0,954
08/02/99,03:25:01,124,304,-25,0,954
08/02/99,03:30:01,98,304,-25,0,954
08/02/99,03:35:01,115,304,-25,0,954
08/02/99,03:40:01,106,294,-25,0,954
08/02/99,03:45:01,94,305,-25,0,954
08/02/99,03:50:01,124,305,-25,0,954
08/02/99,03:55:01,124,307,-25,0,954
08/02/99,04:00:01,96,297,-25,0,954
08/02/99,04:05:01,121,295,-25,0,954
08/02/99,04:10:01,121,305,-25,0,954
08/02/99,04:15:01,116,303,-25,0,954
08/02/99,04:20:01,113,303,-25,0,954
08/02/99,04:25:01,116,293,-25,0,954
08/02/99,04:30:01,116,304,-25,0,954
08/02/99,04:35:01,84,306,-25,0,954
08/02/99,04:40:01,85,292,-25,0,954
08/02/99,04:45:01,79,298,-25,0,954
08/02/99,04:50:01,79,298,-25,0,954
08/02/99,04:55:01,89,298,-25,0,954
08/02/99,05:00:01,101,298,-25,0,954
08/02/99,05:05:01,101,298,-25,0,954
08/02/99,05:10:01,75,283,-25,0,954
08/02/99,05:15:01,70,294,-25,0,954
08/02/99,05:20:01,72,295,-25,0,954
08/02/99,05:25:01,63,277,-25,0,954
08/02/99,05:30:01,43,271,-25,0,954
08/02/99,05:35:01,63,271,-25,0,954
08/02/99,05:40:01,35,273,-25,0,954
08/02/99,05:45:01,45,258,-25,0,954
08/02/99,05:50:01,11,247,-25,0,954
08/02/99,05:55:01,8,215,-25,0,954
08/02/99,06:00:01,23,185,-25,0,954
08/02/99,06:05:01,4,162,-25,0,954
08/02/99,06:10:01,22,167,-25,0,954
08/02/99,06:15:01,24,201,-25,0,954
08/02/99,06:20:01,49,217,-25,0,954
08/02/99,06:25:01,52,214,-25,0,954
08/02/99,06:30:01,50,214,-25,0,954
08/02/99,06:35:01,39,194,-25,0,954
08/02/99,06:40:01,39,179,-25,0,954
08/02/99,06:45:01,49,179,-25,0,954
08/02/99,06:50:01,37,139,-25,0,954
08/02/99,06:55:01,48,114,-25,0,954
08/02/99,07:00:01,26,114,-27,0,954
08/02/99,07:05:01,46,157,-27,0,954
08/02/99,07:10:01,43,167,-27,0,954
08/02/99,07:15:01,105,162,-27,0,954
08/02/99,07:20:01,146,162,-27,0,954
08/02/99,07:25:01,153,172,-27,0,954
08/02/99,07:30:01,151,172,-27,0,954
08/02/99,07:35:01,152,172,-27,0,954
08/02/99,07:40:01,161,183,-27,0,954
08/02/99,07:45:01,201,184,-27,0,954
08/02/99,07:50:01,225,182,-27,0,954
08/02/99,07:55:01,210,168,-27,0,954
08/02/99,08:00:01,234,166,-27,0,954
08/02/99,08:05:01,285,176,-27,0,954
08/02/99,08:10:01,221,166,-27,0,954
08/02/99,08:15:01,195,170,-27,0,954
08/02/99,08:20:01,252,167,-27,0,954
08/02/99,08:25:01,276,165,-27,0,954
08/02/99,08:30:01,292,164,-27,0,956
08/02/99,08:35:01,281,171,-27,0,956
08/02/99,08:40:01,299,178,-27,0,956
08/02/99,08:45:01,264,178,-27,0,956
08/02/99,08:50:01,296,168,-27,0,956
08/02/99,08:55:01,260,173,-27,0,956
08/02/99,09:00:01,328,167,-27,0,956
08/02/99,09:05:01,299,174,-27,0,956
08/02/99,09:10:01,408,177,-27,0,956
08/02/99,09:15:01,293,167,-27,0,956
08/02/99,09:20:01,319,169,-27,0,956
08/02/99,09:25:01,319,179,-27,0,956
08/02/99,09:30:01,275,177,-27,0,956
08/02/99,09:35:01,297,167,-27,0,956
08/02/99,09:40:01,275,182,-27,0,956
08/02/99,09:45:01,407,182,-27,0,956
08/02/99,09:50:01,355,172,-27,0,956
08/02/99,09:55:01,263,166,-27,0,956
08/02/99,10:00:01,367,171,-27,0,956
08/02/99,10:05:01,382,179,-27,0,956
08/02/99,10:10:01,319,179,-27,0,956
08/02/99,10:15:01,356,170,-27,0,956
08/02/99,10:20:01,357,182,-27,0,956
08/02/99,10:25:01,398,173,-27,0,956
08/02/99,10:30:01,376,173,-27,0,956
08/02/99,10:35:01,358,173,-27,0,956
08/02/99,10:40:01,423,184,-27,0,956
08/02/99,10:45:01,378,170,-27,0,956
08/02/99,10:50:01,321,170,-27,0,956
08/02/99,10:55:01,300,172,-27,0,956
08/02/99,11:00:01,353,171,-27,0,956
08/02/99,11:05:01,399,171,-27,0,956
08/02/99,11:10:01,373,170,-27,0,956
08/02/99,11:15:01,404,174,-27,0,956
08/02/99,11:20:01,330,179,-27,0,956
08/02/99,11:25:01,401,179,-27,0,956
08/02/99,11:30:01,350,169,-27,0,956
08/02/99,11:35:01,404,174,-27,0,956
08/02/99,11:40:01,381,174,-27,0,958
08/02/99,11:45:01,309,174,-27,0,958
08/02/99,11:50:01,363,170,-27,0,958
08/02/99,11:55:01,450,170,-27,0,958
08/02/99,12:00:01,416,170,-27,0,958
08/02/99,12:05:01,353,165,-27,0,958
08/02/99,12:10:01,423,177,-27,0,958
08/02/99,12:15:01,434,177,-27,0,958
08/02/99,12:20:01,404,175,-27,0,958
08/02/99,12:25:01,469,175,-27,0,958
08/02/99,12:30:01,461,175,-27,0,958
08/02/99,12:35:01,446,175,-27,0,958
08/02/99,12:40:01,374,175,-27,0,958
08/02/99,12:45:01,451,175,-27,0,958
08/02/99,12:50:01,401,175,-27,0,958
08/02/99,12:55:01,385,161,-27,0,958
08/02/99,13:00:01,403,160,-27,0,958
08/02/99,13:05:01,447,170,-27,0,958
08/02/99,13:10:01,457,170,-27,0,958
08/02/99,13:15:01,471,170,-27,0,958
08/02/99,13:20:01,432,170,-27,0,958
08/02/99,13:25:01,458,171,-27,0,958
08/02/99,13:30:01,464,164,-27,0,958
08/02/99,13:35:01,509,164,-27,0,958
08/02/99,13:40:01,551,164,-27,0,958
08/02/99,13:45:01,525,174,-27,0,958
08/02/99,13:50:01,547,174,-27,0,958
08/02/99,13:55:01,485,174,-27,0,958
08/02/99,14:00:01,495,180,-27,0,958
08/02/99,14:05:01,408,180,-27,0,958
08/02/99,14:10:01,469,180,-27,0,958
08/02/99,14:15:01,408,169,-25,0,958
08/02/99,14:20:01,482,169,-25,0,958
08/02/99,14:25:01,456,169,-25,0,958
08/02/99,14:30:01,476,169,-25,0,958
08/02/99,14:35:01,446,169,-25,0,958
08/02/99,14:40:01,540,169,-25,0,958
08/02/99,14:45:01,509,173,-25,0,958
08/02/99,14:50:01,474,173,-25,0,958
08/02/99,14:55:01,517,173,-25,0,958
08/02/99,15:00:01,435,173,-25,0,958
08/02/99,15:05:01,493,162,-25,0,958
08/02/99,15:10:01,443,168,-25,0,958
08/02/99,15:15:01,538,168,-25,0,958
08/02/99,15:20:01,497,168,-25,0,960
08/02/99,15:25:01,424,178,-25,0,960
08/02/99,15:30:01,569,165,-25,0,960
08/02/99,15:35:01,494,165,-25,0,960
08/02/99,15:40:01,393,165,-25,0,960
08/02/99,15:45:01,465,177,-25,0,960
08/02/99,15:50:01,461,167,-25,0,960
08/02/99,15:55:01,445,173,-25,0,960
08/02/99,16:00:01,481,173,-25,0,960
08/02/99,16:05:01,431,173,-25,0,960
08/02/99,16:10:01,523,173,-25,0,960
08/02/99,16:15:01,416,158,-25,0,960
08/02/99,16:20:01,481,170,-25,0,960
08/02/99,16:25:01,475,170,-25,0,960
08/02/99,16:30:01,464,170,-25,0,960
08/02/99,16:35:01,464,170,-25,0,960
08/02/99,16:40:01,456,170,-25,0,960
08/02/99,16:45:01,449,170,-25,0,960
08/02/99,16:50:01,420,181,-25,0,960
08/02/99,16:55:01,481,171,-25,0,960
08/02/99,17:00:01,445,171,-25,0,960
08/02/99,17:05:01,480,174,-25,0,960
08/02/99,17:10:01,456,174,-25,0,960
08/02/99,17:15:01,432,162,-25,0,960
08/02/99,17:20:01,428,172,-25,0,960
08/02/99,17:25:01,381,172,-25,0,960
08/02/99,17:30:01,389,172,-25,0,960
08/02/99,17:35:01,420,172,-25,0,960
08/02/99,17:40:01,425,172,-25,0,960
08/02/99,17:45:01,410,172,-25,0,960
08/02/99,17:50:01,414,157,-25,0,960
08/02/99,17:55:01,411,173,-25,0,960
08/02/99,18:00:01,378,173,-25,0,960
08/02/99,18:05:01,366,173,-25,0,960
08/02/99,18:10:01,386,183,-25,0,960
08/02/99,18:15:01,427,183,-25,0,960
08/02/99,18:20:01,426,173,-25,0,960
08/02/99,18:25:01,419,173,-25,0,960
08/02/99,18:30:01,433,173,-25,0,960
08/02/99,18:35:01,368,173,-25,0,960
08/02/99,18:40:01,315,173,-25,0,960
08/02/99,18:45:01,353,173,-25,0,960
08/02/99,18:50:01,291,183,-25,0,960
08/02/99,18:55:01,378,171,-25,0,960
08/02/99,19:00:01,332,180,-25,0,960
08/02/99,19:05:01,313,165,-25,0,960
08/02/99,19:10:01,314,181,-25,0,960
08/02/99,19:15:01,350,164,-25,0,960
08/02/99,19:20:01,373,175,-25,0,960
08/02/99,19:25:01,313,175,-25,0,960
08/02/99,19:30:01,292,175,-25,0,960
08/02/99,19:35:01,263,176,-25,0,960
08/02/99,19:40:01,294,187,-25,0,960
08/02/99,19:45:01,262,176,-25,0,962
08/02/99,19:50:01,267,185,-25,0,962
08/02/99,19:55:01,249,175,-25,0,962
08/02/99,20:00:01,252,187,-25,0,962
08/02/99,20:05:01,247,187,-25,0,962
08/02/99,20:10:01,199,187,-25,0,962
08/02/99,20:15:01,196,187,-25,0,962
08/02/99,20:20:01,228,187,-25,0,962
08/02/99,20:25:01,205,189,-25,0,962
08/02/99,20:30:01,241,184,-25,0,962
08/02/99,20:35:01,199,179,-25,0,962
08/02/99,20:40:01,236,173,-25,0,962
08/02/99,20:45:01,266,187,-25,0,962
08/02/99,20:50:01,181,176,-25,0,962
08/02/99,20:55:01,171,176,-25,0,962
08/02/99,21:00:01,168,181,-25,0,962
08/02/99,21:05:01,134,181,-25,0,962
08/02/99,21:10:01,139,189,-25,0,962
08/02/99,21:15:01,133,189,-25,0,962
08/02/99,21:20:01,179,177,-25,0,962
08/02/99,21:25:01,112,177,-25,0,962
08/02/99,21:30:01,79,189,-25,0,962
08/02/99,21:35:01,94,203,-25,0,962
08/02/99,21:40:01,175,195,-25,0,962
08/02/99,21:45:01,185,178,-25,0,962
08/02/99,21:50:01,199,183,-25,0,962
08/02/99,21:55:01,205,168,-25,0,962
08/02/99,22:00:01,234,173,-25,0,962
08/02/99,22:05:01,212,161,-25,0,962
08/02/99,22:10:01,263,163,-25,0,962
08/02/99,22:15:01,279,163,-25,0,962
08/02/99,22:20:01,282,163,-25,0,962
08/02/99,22:25:01,258,174,-25,0,962
08/02/99,22:30:01,270,162,-25,0,962
08/02/99,22:35:01,278,173,-25,0,962
08/02/99,22:40:01,291,181,-25,0,962
08/02/99,22:45:01,242,182,-25,0,962
08/02/99,22:50:01,249,182,-25,0,962
08/02/99,22:55:01,248,192,-25,0,962
08/02/99,23:00:01,227,179,-25,0,962
08/02/99,23:05:01,221,169,-25,0,962
08/02/99,23:10:01,152,164,-25,0,962
08/02/99,23:15:01,208,179,-25,0,962
08/02/99,23:20:01,234,179,-25,0,962
08/02/99,23:25:01,182,171,-25,0,962
08/02/99,23:30:01,163,167,-25,0,962
08/02/99,23:35:01,211,166,-25,0,962
08/02/99,23:40:01,168,166,-25,0,962
08/02/99,23:45:01,205,187,-25,0,962
08/02/99,23:50:01,204,187,-25,0,962
08/02/99,23:55:01,182,185,-25,0,962
08/03/99,00:00:01,153,185,-25,0,962
